Location: Newark
(25.0000°N, 73.5000°E)
Time: 23:41:53
(UTC+00:00)

STARLINK-2736 - Pass Details

Date: 16 June 2021
Orbit: 546 x 548 km, 53.1° (Epoch: 03 August)

Event Time Altitude Azimuth Distance (km) Brightness Sun altitude
Exits shadow 22:01:42 11° 126° (SE) 1,747 6.3 -25.7°
Drops below altitude 10° 22:02:57 10° 107° (ESE) 1,789 6.5 -25.5°
Enters shadow 23:01:53 -70° 224° (SW) 12,538 10.4 -15.3°
Maximum altitude 23:40:54 52° 311° (NW) 670 3.9 -7.9°
